| time (UTC) | temp C | wind direction | speed KPH | gust KPH | rain 1hr cm | rain 24hr cm | rain mn cm | humidity % | barometer mb |
| 20260502185004 | 17 | 143 | 4.8 | 16.1 | 0.00 | 0.00 | 0.00 | 45 | 1020.2 |
| 20260502184005 | 17 | 134 | 6.4 | 12.9 | 0.00 | 0.00 | 0.00 | 45 | 1020.1 |
| 20260502182004 | 17 | 144 | 6.4 | 8.0 | 0.00 | 0.00 | 0.00 | 44 | 1020.0 |
| 20260502181006 | 18 | 150 | 6.4 | 12.9 | 0.00 | 0.00 | 0.00 | 43 | 1019.9 |
| 20260502164004 | 21 | 141 | 6.4 | 16.1 | 0.00 | 0.00 | 0.00 | 37 | 1019.8 |
| 20260502163006 | 22 | 42 | 1.6 | 9.7 | 0.00 | 0.00 | 0.00 | 28 | 1019.8 |
| 20260502162004 | 22 | 50 | 4.8 | 12.9 | 0.00 | 0.00 | 0.00 | 28 | 1019.9 |
| 20260502152007 | 23 | 80 | 6.4 | 14.5 | 0.00 | 0.00 | 0.00 | 26 | 1020.5 |
| 20260502151005 | 23 | 51 | 4.8 | 11.3 | 0.00 | 0.00 | 0.00 | 27 | 1020.6 |
| 20260502123004 | 22 | 360 | 8.0 | 14.5 | 0.00 | 0.00 | 0.00 | 31 | 1022.3 |
| 20260502122005 | 21 | 24 | 6.4 | 20.9 | 0.00 | 0.00 | 0.00 | 33 | 1022.5 |
| 20260502121005 | 21 | 103 | 3.2 | 8.0 | 0.00 | 0.00 | 0.00 | 35 | 1022.6 |
| 20260502115006 | 22 | 338 | 11.3 | 20.9 | 0.00 | 0.00 | 0.00 | 33 | 1022.9 |
| 20260502114005 | 22 | 31 | 8.0 | 22.5 | 0.00 | 0.00 | 0.00 | 33 | 1023.0 |
| 20260502113005 | 21 | 306 | 9.7 | 22.5 | 0.00 | 0.00 | 0.00 | 34 | 1023.2 |
| 20260502112005 | 21 | 99 | 8.0 | 22.5 | 0.00 | 0.00 | 0.00 | 37 | 1023.3 |
| 20260502111005 | 21 | 344 | 6.4 | 17.7 | 0.00 | 0.00 | 0.00 | 36 | 1023.4 |
| 20260502110008 | 21 | 113 | 6.4 | 17.7 | 0.00 | 0.00 | 0.00 | 37 | 1023.5 |
| 20260502103007 | 21 | 73 | 6.4 | 14.5 | 0.00 | 0.00 | 0.00 | 35 | 1023.9 |
| 20260502101006 | 20 | 181 | 6.4 | 16.1 | 0.00 | 0.00 | 0.00 | 37 | 1024.0 |
| 20260502091005 | 19 | 129 | 4.8 | 9.7 | 0.00 | 0.00 | 0.00 | 43 | 1024.7 |
| 20260502071005 | 15 | 283 | 3.2 | 6.4 | 0.00 | 0.00 | 0.00 | 57 | 1025.2 |
| 20260502070007 | 15 | 309 | 3.2 | 6.4 | 0.00 | 0.00 | 0.00 | 60 | 1025.2 |
| 20260502065006 | 13 | 309 | 3.2 | 6.4 | 0.00 | 0.00 | 0.00 | 60 | 1025.2 |
| 20260502063007 | 12 | 283 | 1.6 | 6.4 | 0.00 | 0.00 | 0.00 | 64 | 1025.2 |
| 20260502062008 | 12 | 283 | 3.2 | 6.4 | 0.00 | 0.00 | 0.00 | 64 | 1025.2 |
| 20260502061005 | 11 | 283 | 1.6 | 4.8 | 0.00 | 0.00 | 0.00 | 67 | 1025.2 |
| 20260502055007 | 11 | 240 | 3.2 | 6.4 | 0.00 | 0.00 | 0.00 | 68 | 1025.2 |
| 20260502054006 | 10 | 14 | 1.6 | 3.2 | 0.00 | 0.00 | 0.00 | 70 | 1025.1 |
| 20260502053006 | 9 | 13 | 0.0 | 3.2 | 0.00 | 0.00 | 0.00 | 73 | 1025.1 |
| 20260502052006 | 8 | 14 | 1.6 | 3.2 | 0.00 | 0.00 | 0.00 | 76 | 1025.2 |
| 20260502050012 | 6 | 14 | 0.0 | 1.6 | 0.00 | 0.00 | 0.00 | 80 | 1025.1 |
| 20260502045006 | 6 | 14 | 0.0 | 0.0 | 0.00 | 0.00 | 0.00 | 81 | 1025.1 |
| 20260502044007 | 5 | 14 | 0.0 | 3.2 | 0.00 | 0.00 | 0.00 | 82 | 1025.0 |
| 20260502042004 | 4 | 14 | 0.0 | 3.2 | 0.00 | 0.00 | 0.00 | 84 | 1024.9 |
| 20260502041005 | 3 | 14 | 0.0 | 0.0 | 0.00 | 0.00 | 0.00 | 86 | 1024.8 |
| 20260502040008 | 2 | 14 | 0.0 | 0.0 | 0.00 | 0.00 | 0.00 | 85 | 1024.7 |
| 20260502035006 | 2 | 14 | 0.0 | 1.6 | 0.00 | 0.00 | 0.00 | 86 | 1024.7 |
| 20260502034006 | 3 | 14 | 1.6 | 3.2 | 0.00 | 0.00 | 0.00 | 86 | 1024.7 |
| 20260502033006 | 2 | 10 | 0.0 | 0.0 | 0.00 | 0.00 | 0.00 | 85 | 1024.7 |
| 20260502032006 | 2 | 10 | 0.0 | 0.0 | 0.00 | 0.00 | 0.00 | 86 | 1024.8 |
| 20260502030007 | 3 | 10 | 0.0 | 0.0 | 0.00 | 0.00 | 0.00 | 86 | 1024.7 |
| 20260502025007 | 3 | 10 | 1.6 | 3.2 | 0.00 | 0.00 | 0.00 | 84 | 1024.7 |
| 20260502024006 | 3 | 10 | 1.6 | 3.2 | 0.00 | 0.00 | 0.00 | 84 | 1024.7 |
| 20260502023008 | 3 | 10 | 0.0 | 3.2 | 0.00 | 0.00 | 0.00 | 85 | 1024.7 |
| 20260502022006 | 3 | 10 | 1.6 | 3.2 | 0.00 | 0.00 | 0.00 | 85 | 1024.7 |
| 20260502020012 | 3 | 10 | 0.0 | 3.2 | 0.00 | 0.00 | 0.00 | 84 | 1024.7 |
| 20260502014006 | 3 | 10 | 0.0 | 0.0 | 0.00 | 0.00 | 0.00 | 85 | 1024.7 |
| 20260502013006 | 4 | 10 | 0.0 | 0.0 | 0.00 | 0.00 | 0.00 | 84 | 1024.7 |
| 20260502012006 | 4 | 10 | 0.0 | 0.0 | 0.00 | 0.00 | 0.00 | 84 | 1024.7 |
| 20260502011006 | 4 | 10 | 0.0 | 0.0 | 0.00 | 0.00 | 0.00 | 84 | 1024.7 |
| 20260502010009 | 4 | 10 | 0.0 | 0.0 | 0.00 | 0.00 | 0.00 | 83 | 1024.7 |
| 20260502005006 | 4 | 10 | 0.0 | 0.0 | 0.00 | 0.00 | 0.00 | 83 | 1024.8 |
| 20260502004006 | 5 | 10 | 0.0 | 0.0 | 0.00 | 0.00 | 0.00 | 83 | 1024.8 |
| 20260502003009 | 5 | 10 | 0.0 | 0.0 | 0.00 | 0.00 | 0.00 | 83 | 1024.9 |
| 20260502002009 | 5 | 10 | 0.0 | 0.0 | 0.00 | 0.00 | 0.00 | 81 | 1024.9 |
| 20260502001007 | 5 | 10 | 0.0 | 0.0 | 0.00 | 0.00 | 0.00 | 82 | 1024.8 |
| 20260502000008 | 5 | 10 | 0.0 | 0.0 | 0.00 | 0.00 | 0.00 | 81 | 1024.8 |
| 20260501235007 | 5 | 10 | 0.0 | 0.0 | 0.00 | 0.00 | 0.00 | 81 | 1024.9 |
| 20260501234006 | 6 | 10 | 0.0 | 0.0 | 0.00 | 0.00 | 0.00 | 79 | 1024.9 |
| 20260501233006 | 6 | 10 | 0.0 | 0.0 | 0.00 | 0.00 | 0.00 | 79 | 1024.9 |
| 20260501232006 | 6 | 10 | 0.0 | 0.0 | 0.00 | 0.00 | 0.00 | 79 | 1024.9 |
| 20260501231010 | 6 | 10 | 0.0 | 0.0 | 0.00 | 0.00 | 0.00 | 79 | 1025.0 |
| 20260501224004 | 7 | 10 | 0.0 | 3.2 | 0.00 | 0.00 | 0.00 | 78 | 1024.9 |
| 20260501223004 | 7 | 10 | 0.0 | 3.2 | 0.00 | 0.00 | 0.00 | 77 | 1024.9 |
| 20260501221004 | 7 | 10 | 1.6 | 3.2 | 0.00 | 0.00 | 0.00 | 76 | 1025.0 |
| 20260501220009 | 8 | 10 | 1.6 | 3.2 | 0.00 | 0.00 | 0.00 | 75 | 1025.0 |
| 20260501215003 | 7 | 10 | 0.0 | 1.6 | 0.00 | 0.00 | 0.00 | 75 | 1025.1 |
| 20260501214004 | 8 | 10 | 1.6 | 3.2 | 0.00 | 0.00 | 0.00 | 73 | 1025.0 |
| 20260501213003 | 8 | 10 | 0.0 | 1.6 | 0.00 | 0.00 | 0.00 | 72 | 1024.9 |
| 20260501210010 | 10 | 10 | 0.0 | 1.6 | 0.00 | 0.00 | 0.00 | 69 | 1024.9 |
| 20260501205004 | 10 | 10 | 0.0 | 1.6 | 0.00 | 0.00 | 0.00 | 68 | 1025.0 |
| 20260501204005 | 10 | 10 | 0.0 | 0.0 | 0.00 | 0.00 | 0.00 | 66 | 1025.0 |
| 20260501202005 | 11 | 10 | 1.6 | 3.2 | 0.00 | 0.00 | 0.00 | 64 | 1024.9 |
| 20260501201005 | 11 | 10 | 1.6 | 4.8 | 0.00 | 0.00 | 0.00 | 62 | 1024.9 |
| 20260501200007 | 12 | 10 | 3.2 | 6.4 | 0.00 | 0.00 | 0.00 | 58 | 1024.8 |
| 20260501195005 | 12 | 10 | 4.8 | 6.4 | 0.00 | 0.00 | 0.00 | 57 | 1024.8 |
| 20260501194007 | 13 | 10 | 4.8 | 8.0 | 0.00 | 0.00 | 0.00 | 56 | 1024.7 |
| 20260501193008 | 13 | 10 | 4.8 | 6.4 | 0.00 | 0.00 | 0.00 | 55 | 1024.7 |
| 20260501192005 | 13 | 10 | 4.8 | 6.4 | 0.00 | 0.00 | 0.00 | 54 | 1024.7 |
| 20260501191005 | 13 | 10 | 4.8 | 8.0 | 0.00 | 0.00 | 0.00 | 53 | 1024.6 |